Weather History for Termez, Uzbekistan

Change the Weather History Date:

Friday, December 7, 2012

  Actual Average Record
Temperature  
Mean Temperature 56 °F -  
Max Temperature 70 °F - - ()
Min Temperature 42 °F - - ()
Degree Days  
Heating Degree Days 9    
Growing Degree Days 6 (Base 50)    
Moisture  
Dew Point 38 °F    
Average Humidity 60    
Maximum Humidity 94    
Minimum Humidity 23    
Precipitation  
Precipitation 0.03 in 0.02 in - ()
Sea Level Pressure  
Sea Level Pressure 30.00 in    
Wind  
Wind Speed 6 mph ()    
Max Wind Speed 27 mph    
Max Gust Speed -    
Visibility 6.0 miles    
Events Rain    
T = Trace of Precipitation, MM = Missing Value Source: Averaged Metar Reports

Daily Weather History Graph

Daily Weather History Graph

Search for Another Location

Airport:

Trip Planner

Search our weather history database for the weather conditions in past years. The results will help you decide how hot, cold, wet, or windy it might be!

Date:

Astronomy

Dec. 07, 2012 Rise Set
Actual Time 7:31 AM UZT 5:12 PM UZT
Civil Twilight 7:02 AM UZT 5:41 PM UZT
Nautical Twilight 6:30 AM UZT 6:14 PM UZT
Astronomical Twilight 5:58 AM UZT 6:46 PM UZT
Moon 12:30 AM UZT (12/7) 12:49 PM UZT (12/7)
Length of Visible Light 10h 39m
Length of Day
9h 41m
Last Quarter, 43% of the Moon is Illuminated
Dec 7
Last Quarter
Dec 13
New
Dec 20
First Quarter
Dec 28
Full
Jan 5
Last Quarter

Hourly Weather History & Observations

Time (UZT) Temp. Windchill Dew Point Humidity Pressure Visibility Wind Dir Wind Speed Gust Speed Precip Events Conditions
12:00 AM 48.2 °F - 30.2 °F 50% 29.98 in - NNE 6.7 mph - N/A   Clear
12:30 AM 48.2 °F - 30.2 °F 50% 29.98 in - NNE 8.9 mph - N/A   Clear
1:00 AM 48.2 °F - 28.4 °F 46% 29.98 in - NNE 8.9 mph - N/A   Clear
1:30 AM 48.2 °F - 28.4 °F 46% 29.95 in - NE 6.7 mph - N/A   Clear
2:00 AM 48.2 °F - 28.4 °F 46% 29.95 in - NNE 6.7 mph - N/A   Clear
2:30 AM 46.4 °F - 28.4 °F 50% 29.95 in - NNE 2.2 mph - N/A   Clear
3:00 AM 46.4 °F 44.4 °F 28.4 °F 50% 29.95 in - NNE 4.5 mph - N/A   Clear
3:30 AM 44.6 °F - 30.2 °F 57% 29.95 in - Variable 2.2 mph - N/A   Clear
4:00 AM 44.6 °F 42.3 °F 32.0 °F 61% 29.95 in - East 4.5 mph - N/A   Clear
4:30 AM 42.8 °F 38.7 °F 32.0 °F 66% 29.92 in - NE 6.7 mph - N/A   Clear
5:00 AM 42.8 °F - 32.0 °F 66% 29.95 in - Calm Calm - N/A   Clear
5:30 AM 44.6 °F - 30.2 °F 57% 29.92 in - NNE 2.2 mph - N/A   Clear
6:00 AM 46.4 °F - 30.2 °F 53% 29.95 in - Variable 2.2 mph - N/A   Clear
6:30 AM 44.6 °F 42.3 °F 32.0 °F 61% 29.92 in - NE 4.5 mph - N/A   Clear
7:00 AM 44.6 °F - 32.0 °F 61% 29.95 in - Calm Calm - N/A   Clear
7:30 AM 44.6 °F - 32.0 °F 61% 29.95 in - Calm Calm - N/A   Clear
8:00 AM 44.6 °F - 32.0 °F 61% 29.95 in - South 2.2 mph - N/A   Clear
8:30 AM 46.4 °F - 32.0 °F 57% 29.95 in - Calm Calm - N/A   Clear
9:00 AM 46.4 °F - 32.0 °F 57% 29.95 in - Calm Calm - N/A   Clear
9:30 AM 50.0 °F - 33.8 °F 54% 29.95 in - North 4.5 mph - N/A   Clear
10:00 AM 53.6 °F - 32.0 °F 44% 29.95 in - NNE 4.5 mph - N/A   Clear
10:30 AM 57.2 °F - 30.2 °F 36% 29.95 in - NE 4.5 mph - N/A   Clear
11:00 AM 58 °F - 31 °F 24% 29.95 in 6 mi NE 2.2 mph - -   Mostly Cloudy
11:00 AM 60.8 °F - 30.2 °F 31% 29.95 in - Variable 2.2 mph - N/A   Clear
11:30 AM 64.4 °F - 30.2 °F 28% 29.95 in - Variable 2.2 mph - N/A   Clear
12:00 PM 66.2 °F - 30.2 °F 26% 29.92 in - Variable 2.2 mph - N/A   Clear
12:30 PM 68.0 °F - 30.2 °F 24% 29.92 in - Variable 2.2 mph - N/A   Clear
1:00 PM 68.0 °F - 30.2 °F 24% 29.92 in - Variable 2.2 mph - N/A   Clear
1:30 PM 66.2 °F - 32.0 °F 28% 29.92 in - WSW 4.5 mph - N/A   Clear
2:00 PM 69.8 °F - 30.2 °F 23% 29.92 in 6.2 mi Variable 2.2 mph - N/A   Mostly Cloudy
2:30 PM 68.0 °F - 30.2 °F 24% 29.92 in 6.2 mi WSW 4.5 mph - N/A   Mostly Cloudy
3:00 PM 68.0 °F - 30.2 °F 24% 29.95 in 5.0 mi WSW 13.4 mph - N/A   Mostly Cloudy
3:30 PM 64.4 °F - 42.8 °F 45% 29.95 in - West 20.1 mph - N/A   Unknown
4:00 PM 57.2 °F - 51.8 °F 82% 29.98 in 4.3 mi West 26.8 mph - N/A Rain Light Rain Showers
4:30 PM 57.2 °F - 51.8 °F 82% 30.01 in 6.2 mi West 20.1 mph - N/A   Overcast
5:00 PM 57 °F - 52 °F 78% 30.01 in 6 mi WSW 15.7 mph - - Rain Light Rain Showers
5:00 PM 57.2 °F - 51.8 °F 82% 30.04 in 6.2 mi WSW 15.7 mph - N/A Rain Light Rain Showers
5:30 PM 55.4 °F - 51.8 °F 88% 30.04 in 6.2 mi WSW 17.9 mph - N/A Rain Light Rain Showers
6:00 PM 53.6 °F - 51.8 °F 94% 30.06 in 6.2 mi WSW 11.2 mph - N/A Rain Light Rain Showers
6:30 PM 55.4 °F - 51.8 °F 88% 30.06 in 6.2 mi SW 11.2 mph - N/A   Overcast
7:00 PM 55.4 °F - 51.8 °F 88% 30.09 in 6.2 mi SW 11.2 mph - N/A   Overcast
7:30 PM 55.4 °F - 51.8 °F 88% 30.12 in 6.2 mi South 8.9 mph - N/A   Overcast
8:00 PM 55.4 °F - 51.8 °F 88% 30.12 in 6.2 mi SSW 6.7 mph - N/A Rain Light Rain Showers
8:30 PM 55.4 °F - 51.8 °F 88% 30.12 in 6.2 mi West 4.5 mph - N/A   Overcast
9:00 PM 53.6 °F - 51.8 °F 94% 30.15 in 6.2 mi SW 4.5 mph - N/A Rain Light Rain Showers
9:30 PM 53.6 °F - 51.8 °F 94% 30.15 in 6.2 mi SSW 4.5 mph - N/A   Overcast
10:00 PM 53.6 °F - 51.8 °F 94% 30.15 in 6.2 mi SSW 4.5 mph - N/A   Overcast
10:30 PM 53.6 °F - 50.0 °F 88% 30.18 in 6.2 mi WSW 6.7 mph - N/A   Mostly Cloudy
11:00 PM 53 °F - 49 °F 80% 30.19 in 6 mi WSW 4.5 mph - -   Partly Cloudy
11:00 PM 51.8 °F - 48.2 °F 88% 30.18 in 6.2 mi WSW 4.5 mph - N/A   Scattered Clouds
11:30 PM 51.8 °F - 46.4 °F 82% 30.18 in 6.2 mi SW 4.5 mph - N/A   Scattered Clouds